TimeEDT,TemperatureF,Dew PointF,Humidity,Sea Level PressureIn,VisibilityMPH,Wind Direction,Wind SpeedMPH,Gust SpeedMPH,PrecipitationIn,Events,Conditions,WindDirDegrees,DateUTC
12:56 AM,64.0,59.0,84,30.10,10.0,SSW,8.1,-,N/A,,Clear,200,2013-04-25 04:56:00
1:56 AM,63.0,59.0,87,30.09,10.0,SSW,5.8,-,N/A,,Clear,200,2013-04-25 05:56:00
2:56 AM,63.0,59.0,87,30.08,10.0,SSW,6.9,-,N/A,,Clear,210,2013-04-25 06:56:00
3:56 AM,63.0,59.0,87,30.09,10.0,SW,6.9,-,N/A,,Clear,220,2013-04-25 07:56:00
4:56 AM,63.0,60.1,90,30.11,9.0,WSW,5.8,-,N/A,,Overcast,240,2013-04-25 08:56:00
5:56 AM,64.0,60.1,87,30.13,9.0,WSW,5.8,-,N/A,,Overcast,240,2013-04-25 09:56:00
6:56 AM,64.0,60.1,87,30.15,8.0,West,5.8,-,N/A,,Overcast,260,2013-04-25 10:56:00
7:56 AM,64.9,60.1,84,30.17,8.0,West,4.6,-,N/A,,Overcast,270,2013-04-25 11:56:00
8:56 AM,66.0,59.0,78,30.19,9.0,NW,9.2,-,N/A,,Overcast,310,2013-04-25 12:56:00
9:56 AM,66.9,57.0,70,30.19,9.0,NNW,11.5,-,N/A,,Mostly Cloudy,340,2013-04-25 13:56:00
10:56 AM,68.0,55.0,63,30.20,10.0,North,11.5,-,N/A,,Overcast,350,2013-04-25 14:56:00
11:56 AM,70.0,55.0,59,30.20,10.0,NE,10.4,-,N/A,,Mostly Cloudy,40,2013-04-25 15:56:00
12:36 PM,69.8,55.4,60,30.20,8.0,NE,8.1,-,0.00,Rain,Light Rain,50,2013-04-25 16:36:00
12:56 PM,70.0,55.9,61,30.20,10.0,East,8.1,-,0.00,,Mostly Cloudy,90,2013-04-25 16:56:00
1:56 PM,71.1,55.9,59,30.19,10.0,East,5.8,-,N/A,,Mostly Cloudy,100,2013-04-25 17:56:00
2:56 PM,66.9,55.9,68,30.20,10.0,East,9.2,-,N/A,,Mostly Cloudy,80,2013-04-25 18:56:00
3:56 PM,66.9,55.0,66,30.20,10.0,ENE,9.2,-,N/A,,Mostly Cloudy,60,2013-04-25 19:56:00
4:56 PM,66.0,54.0,65,30.21,10.0,ENE,6.9,-,N/A,,Overcast,60,2013-04-25 20:56:00
5:56 PM,64.0,54.0,70,30.22,10.0,ENE,10.4,-,N/A,,Overcast,70,2013-04-25 21:56:00
6:56 PM,63.0,52.0,67,30.21,10.0,East,10.4,-,N/A,,Mostly Cloudy,90,2013-04-25 22:56:00
7:56 PM,60.1,51.1,72,30.25,9.0,ENE,10.4,-,N/A,,Mostly Cloudy,60,2013-04-25 23:56:00
8:56 PM,57.9,50.0,75,30.27,10.0,East,9.2,-,N/A,,Scattered Clouds,80,2013-04-26 00:56:00
9:56 PM,55.9,48.0,75,30.29,10.0,East,8.1,-,N/A,,Clear,80,2013-04-26 01:56:00
10:56 PM,54.0,46.9,77,30.30,10.0,East,8.1,-,N/A,,Clear,80,2013-04-26 02:56:00